Regional Weather Roundup
Issued by NWS

Home | Current Version | Previous Version | Graphics & Text | Print | Product List | Glossary On
Versions: 1 2 3 4 5 6 7 8 9 10 11 12 13 14 15 16 17 18 19 20 21 22 23 24 25 26 27
000
ASUS45 KSLC 230810
RWRUT

UTAH REGIONAL WEATHER ROUNDUP
NATIONAL WEATHER SERVICE SALT LAKE CITY UT
200 AM MDT TUE MAY 23 2017

UTZ001>011-023>025-230900-

NORTHERN UTAH

CITY           SKY/WX    TMP DP  RH WIND       PRES   REMARKS
BRIGHAM CITY   MOCLDY    56  47  70 N5        30.18S
HILL AFB       CLEAR     57  40  52 E15       30.19F
LOGAN          PTCLDY    53  46  77 NE6       30.20R
OGDEN          CLEAR     56  41  57 S9        30.17F
SALT LAKE CITY PTCLDY    60  42  51 S6        30.16F
TOOELE VALLEY  PTCLDY    48  43  81 S8        30.18S
WENDOVER       CLEAR     67  36  31 W10       30.18
HEBER CITY     CLOUDY    48  41  76 CALM      30.24S
WEST JORDAN    PTCLDY    57  48  72 SW5       30.20S

$$

UTZ011>015-024>027-230900-

CENTRAL/NORTHEAST UTAH

CITY           SKY/WX    TMP DP  RH WIND       PRES   REMARKS
PROVO AIRPORT  PTCLDY    53  42  66 E5        30.20
MOAB/CANYONLAN PTCLDY    58  35  42 NE22G33   30.16R
DELTA          PTCLDY    52  37  58 NE7       30.19S
PRICE          CLEAR     50  34  54 NE26G37   30.27R
ROOSEVELT      CLOUDY    50  36  57 SW6       30.36S
VERNAL         CLOUDY    47  37  68 E3        30.33R

$$

UTZ013>016-019>022-027-230900-

SOUTHERN UTAH

CITY           SKY/WX    TMP DP  RH WIND       PRES   REMARKS
BRYCE CANYON   PTCLDY    39  27  62 W8        30.33S WCI  33
CEDAR CITY     CLEAR     47  32  56 E5        30.22S
MILFORD        CLEAR     49  32  52 CALM      30.20S
ST GEORGE      PTSUNNY   72  31  22 N6        30.05R
HANKSVILLE     CLEAR     61  32  33 NE5       30.20R
BLANDING       CLEAR     56  32  40 N15G22    30.25R

$$

REGIONAL REPORTS     COLORADO/ARIZONA

CITY           SKY/WX    TMP DP  RH WIND       PRES   REMARKS
CRAIG, CO      PTCLDY    33  30  88 SE3       30.35R
GRAND JUNCTION PTCLDY    53  36  52 NW10      30.25F
RIFLE, CO      CLEAR     47  33  58 W15       30.29R
MONTROSE, CO   CLOUDY    49  46  90 E5        30.28S
CORTEZ, CO     CLEAR     41  34  76 E8        30.17R
COLORADO CITY    N/A     54  27  35 S5        30.19R
PAGE, AZ       CLEAR     68  30  24 NW3       30.11R
GRAND CANYON   CLEAR     36  25  64 NE5       30.25F WCI  32
KINGMAN, AZ    CLEAR     61  25  25 CALM      30.04S
FLAGSTAFF, AZ  CLEAR     44  20  38 NW5       30.26F

$$

REGIONAL REPORTS    NEVADA/IDAHO/WYOMING

CITY           SKY/WX    TMP DP  RH WIND       PRES   REMARKS
LAS VEGAS, NV  CLEAR     79  36  21 W6        29.94R
ELY, NY        CLEAR     41  26  55 S13       30.28S
ELKO, NV       CLEAR     50  42  74 CALM      30.23S
POCATELLO, ID  CLEAR     52  41  66 CALM      30.20S
BURLEY, ID     CLEAR     52  43  71 CALM      30.17R
FORT BRIDGER,  CLOUDY    42  37  80 SE10      30.37S
EVANSTON, WY   CLOUDY    44  36  73 E8        30.33R
ROCK SPRINGS,  CLOUDY    41  33  73 CALM      30.34F
KEMMERER, WY     N/A     41  32  70 CALM      30.36S

$$




USA.gov is the U.S. government's official web portal to all federal, state and local government web resources and services.